EW0139 Weather Reports


Display with metric or nautical units.
time (UTC)temp
F
wind
direction
speed
MPH
gust
MPH
rain 1hr
in
rain 24hr
in
rain mn
in
humidity
%
barometer
mb
20260507032744 45 82 3.0 5.0 0.00 0.00 0.00 35 1008.5
20260507031808 46 82 4.0 6.0 0.00 0.00 0.00 34 1008.5
20260507030748 46 69 4.0 6.0 0.00 0.00 0.00 34 1008.6
20260507025747 46 67 2.0 5.0 0.00 0.00 0.00 33 1008.5
20260507024747 47 9 0.0 4.0 0.00 0.00 0.00 33 1008.6
20260507023747 48 9 2.0 5.0 0.00 0.00 0.00 31 1008.6
20260507022750 49 9 3.0 6.0 0.00 0.00 0.00 30 1008.7
20260507021815 49 9 2.0 3.0 0.00 0.00 0.00 31 1008.7
20260507020754 50 9 1.0 3.0 0.00 0.00 0.00 30 1008.9
20260507015818 51 9 1.0 4.0 0.00 0.00 0.00 29 1008.9
20260507014742 53 9 2.0 5.0 0.00 0.00 0.00 28 1009.1
20260507013742 54 315 0.0 3.0 0.00 0.00 0.00 27 1009.2
20260507012744 55 315 1.0 1.0 0.00 0.00 0.00 29 1009.2
20260507011747 56 315 0.0 1.0 0.00 0.00 0.00 25 1009.2
20260507010747 56 315 0.0 2.0 0.00 0.00 0.00 24 1009.3
20260507005811 57 315 3.0 7.0 0.00 0.00 0.00 27 1009.4
20260507004751 58 310 3.0 5.0 0.00 0.00 0.00 26 1009.5
20260507003752 58 317 2.0 5.0 0.00 0.00 0.00 23 1009.6
20260507002813 57 317 5.0 9.0 0.00 0.00 0.00 23 1009.6
20260507001752 57 336 1.0 9.0 0.00 0.00 0.00 24 1009.8
20260507000757 57 312 4.0 12.0 0.00 0.00 0.00 25 1009.9
20260506235756 57 320 0.0 7.0 0.00 0.00 0.00 25 1009.9
20260506234757 57 305 0.0 8.0 0.00 0.00 0.00 25 1009.9
20260506233758 57 294 8.0 8.0 0.00 0.00 0.00 25 1009.9
20260506232741 56 273 3.0 12.0 0.00 0.00 0.00 25 1010.0
20260506231744 56 306 9.0 13.0 0.00 0.00 0.00 26 1010.1
20260506230750 56 281 7.0 15.0 0.00 0.00 0.00 25 1010.3
20260506225750 56 246 3.0 12.0 0.00 0.00 0.00 26 1010.4
20260506224755 56 264 10.0 13.0 0.00 0.00 0.00 24 1010.4
20260506223755 56 250 12.0 18.0 0.00 0.00 0.00 25 1010.6
20260506222756 56 252 8.0 12.0 0.00 0.00 0.00 24 1010.7
20260506221756 56 230 3.0 12.0 0.00 0.00 0.00 25 1011.1
20260506220755 55 151 2.0 12.0 0.00 0.00 0.00 25 1011.0
20260506215742 56 171 9.0 11.0 0.00 0.00 0.00 25 1011.3
20260506214742 56 259 12.0 18.0 0.00 0.00 0.00 26 1011.4
20260506213742 55 258 6.0 11.0 0.00 0.00 0.00 26 1011.5
20260506212743 56 242 6.0 14.0 0.00 0.00 0.00 27 1011.7
20260506211748 55 254 16.0 16.0 0.00 0.00 0.00 26 1011.7
20260506210751 55 235 1.0 16.0 0.00 0.00 0.00 27 1011.9
20260506205756 54 156 5.0 8.0 0.00 0.00 0.00 27 1012.2
20260506204817 54 219 9.0 12.0 0.00 0.00 0.00 26 1012.5
20260506203743 54 213 4.0 16.0 0.00 0.00 0.00 26 1012.5
20260506202740 54 175 6.0 17.0 0.00 0.00 0.00 26 1012.6
20260506201741 53 175 6.0 15.0 0.00 0.00 0.00 26 1012.8
20260506200741 53 252 15.0 17.0 0.00 0.00 0.00 27 1012.9
20260506195746 53 197 6.0 17.0 0.00 0.00 0.00 26 1013.1
20260506194750 53 252 5.0 14.0 0.00 0.00 0.00 28 1013.2
20260506193752 54 178 14.0 14.0 0.00 0.00 0.00 29 1013.5
20260506192752 52 251 9.0 14.0 0.00 0.00 0.00 27 1013.7
20260506191752 51 296 7.0 16.0 0.00 0.00 0.00 33 1012.9
20260506190753 51 278 3.0 13.0 0.00 0.00 0.00 29 1012.9
20260506185759 51 257 3.0 15.0 0.00 0.00 0.00 29 1013.2
20260506184759 51 258 11.0 11.0 0.00 0.00 0.00 29 1013.3
20260506183800 51 319 4.0 10.0 0.00 0.00 0.00 29 1013.4
20260506182741 50 238 5.0 11.0 0.00 0.00 0.00 30 1013.7
20260506181745 50 236 3.0 13.0 0.00 0.00 0.00 29 1014.0
20260506180807 51 269 5.0 5.0 0.00 0.00 0.00 30 1014.3
20260506175746 49 240 2.0 10.0 0.00 0.00 0.00 29 1014.7
20260506174750 49 259 4.0 13.0 0.00 0.00 0.00 29 1014.7
20260506173755 50 220 12.0 13.0 0.00 0.00 0.00 31 1014.9
20260506172754 49 279 5.0 13.0 0.00 0.00 0.00 30 1015.1
20260506171737 48 334 3.0 12.0 0.00 0.00 0.00 30 1015.3
20260506170741 47 300 9.0 11.0 0.00 0.00 0.00 30 1015.5
20260506165742 47 309 4.0 14.0 0.00 0.00 0.00 29 1015.5
20260506164746 47 235 3.0 9.0 0.00 0.00 0.00 30 1015.8
20260506163751 47 230 2.0 12.0 0.00 0.00 0.00 30 1015.9
20260506162752 46 268 7.0 10.0 0.00 0.00 0.00 33 1016.1
20260506161756 45 215 4.0 11.0 0.00 0.00 0.00 31 1016.3
20260506160759 44 291 7.0 9.0 0.00 0.00 0.00 34 1016.6
20260506155759 43 212 3.0 7.0 0.00 0.00 0.00 36 1016.6
20260506154740 43 242 6.0 10.0 0.00 0.00 0.00 36 1016.6
20260506153743 42 212 4.0 6.0 0.00 0.00 0.00 39 1016.8
20260506152747 41 237 3.0 6.0 0.00 0.00 0.00 40 1016.9
20260506151808 40 270 0.0 8.0 0.00 0.00 0.00 40 1017.0
20260506150810 40 231 3.0 4.0 0.00 0.00 0.00 42 1017.0
20260506145749 38 295 0.0 4.0 0.00 0.00 0.00 45 1017.0
20260506144750 37 294 2.0 4.0 0.00 0.00 0.00 49 1016.9
20260506143753 35 331 1.0 5.0 0.00 0.00 0.00 48 1017.0
20260506142754 34 294 2.0 3.0 0.00 0.00 0.00 51 1017.2
20260506141756 33 294 2.0 4.0 0.00 0.00 0.00 52 1017.3
20260506140756 31 309 0.0 4.0 0.00 0.00 0.00 54 1017.4
20260506135740 30 310 0.0 3.0 0.00 0.00 0.00 58 1017.6
20260506134801 28 310 0.0 3.0 0.00 0.00 0.00 62 1017.6
20260506133759 27 310 2.0 3.0 0.00 0.00 0.00 64 1017.8
20260506132741 26 309 2.0 2.0 0.00 0.00 0.00 65 1017.8
20260506131743 24 310 0.0 0.0 0.00 0.00 0.00 68 1017.8
20260506130748 23 310 0.0 0.0 0.00 0.00 0.00 70 1017.7
20260506125748 20 310 0.0 0.0 0.00 0.00 0.00 71 1017.8
20260506124749 19 310 0.0 0.0 0.00 0.00 0.00 73 1017.8
20260506123750 17 310 0.0 0.0 0.00 0.00 0.00 75 1017.8
20260506122757 16 310 0.0 0.0 0.00 0.00 0.00 75 1017.8
20260506121758 16 310 0.0 0.0 0.00 0.00 0.00 75 1017.8
20260506120754 15 310 0.0 2.0 0.00 0.00 0.00 76 1017.7
20260506115812 15 309 1.0 1.0 0.00 0.00 0.00 75 1017.7
20260506114808 15 309 0.0 0.0 0.00 0.00 0.00 75 1017.8
20260506113749 16 310 0.0 0.0 0.00 0.00 0.00 74 1017.7
20260506112807 16 310 0.0 0.0 0.00 0.00 0.00 73 1017.8
20260506111743 17 309 0.0 0.0 0.00 0.00 0.00 72 1017.8
20260506110742 17 309 1.0 2.0 0.00 0.00 0.00 72 1017.8
20260506105742 17 309 0.0 1.0 0.00 0.00 0.00 73 1017.8
20260506104742 17 310 0.0 3.0 0.00 0.00 0.00 72 1017.8
20260506103747 17 310 2.0 3.0 0.00 0.00 0.00 72 1017.6
20260506102746 17 310 0.0 1.0 0.00 0.00 0.00 73 1017.6
20260506101747 17 310 0.0 0.0 0.00 0.00 0.00 71 1017.6
20260506100747 18 309 0.0 2.0 0.00 0.00 0.00 71 1017.7
20260506095751 18 310 1.0 3.0 0.00 0.00 0.00 72 1017.6
20260506094755 18 309 2.0 3.0 0.00 0.00 0.00 73 1017.5
20260506093755 17 310 2.0 2.0 0.00 0.00 0.00 74 1017.5
20260506092754 17 310 0.0 1.0 0.00 0.00 0.00 74 1017.3
20260506091759 18 310 0.0 0.0 0.00 0.00 0.00 73 1017.4
20260506090743 18 309 0.0 0.0 0.00 0.00 0.00 73 1018.3
20260506085803 19 310 0.0 1.0 0.00 0.00 0.00 73 1018.4
20260506084743 19 310 0.0 2.0 0.00 0.00 0.00 71 1018.5
20260506083743 19 310 2.0 3.0 0.00 0.00 0.00 73 1018.4
20260506082743 18 309 0.0 2.0 0.00 0.00 0.00 73 1018.4
20260506081747 19 310 0.0 1.0 0.00 0.00 0.00 72 1018.3
20260506080746 19 310 0.0 0.0 0.00 0.00 0.00 72 1018.3
20260506072755 20 309 0.0 0.0 0.00 0.00 0.00 71 1018.5
20260506071756 21 310 0.0 0.0 0.00 0.00 0.00 70 1018.6
20260506070756 21 309 0.0 2.0 0.00 0.00 0.00 68 1018.6
20260506061808 23 310 0.0 2.0 0.00 0.00 0.00 64 1018.2
20260506060808 23 310 0.0 3.0 0.00 0.00 0.00 64 1018.2
20260506050757 26 309 0.0 2.0 0.00 0.00 0.00 56 1018.1
20260506044755 26 310 2.0 2.0 0.00 0.00 0.00 56 1018.0
20260506043756 27 309 0.0 2.0 0.00 0.00 0.00 56 1017.9
20260506042741 28 309 1.0 3.0 0.00 0.00 0.00 54 1017.9
20260506041801 29 309 1.0 2.0 0.00 0.00 0.00 53 1017.9
20260506040802 29 309 0.0 2.0 0.00 0.00 0.00 51 1017.8
20260506035742 30 310 1.0 3.0 0.00 0.00 0.00 49 1017.8
20260506034747 31 309 3.0 3.0 0.00 0.00 0.00 48 1017.8
20260506033807 32 310 2.0 4.0 0.00 0.00 0.00 46 1017.8